Weather in Svobodne

Ukraine / Donetsk Region     47°21′39″N   38°03′56″E
temp.,
°C
wind,
m/s
gust,
m/s
humid.,
%
clouds,
%
prec.,
mm/h
press.,
hPa
HPBL,
m
27 october, wed
wed2700:00+4ese34484 0.0 103267
03:00+3e34555 0.0 103173
06:00+2e34631 0.0 103059
09:00+5e46520 0.0 1030365
12:00+9ese45330 0.0 1028622
15:00+10ese33300 0.0 1026611
18:00+7ene12350 0.0 102514
21:00+6n22360 0.0 102516
28 october, thu
thu2800:00+5nne22380 0.0 102416
03:00+4n23400 0.0 102422
06:00+3n33425 0.0 102426
09:00+6nnw22353 0.0 1025129
12:00+11wnw2333100 0.0 1024671
15:00+12wnw3444100 0.0 1023873
18:00+9sw346170 0.0 102382
21:00+10wsw2466100 0.0 102394
29 october, fri
fri2900:00+10wsw3761100 0.1 1022219
03:00+10wsw3765100 0.2 1022212
06:00+9nnw278295 0.4 1023245
09:00+11n477599 0.4 1024499
12:00+14nne556077 0.0 10251132
15:00+14ne455595 0.0 10261354
18:00+13ene585099 0.0 1028431
21:00+9ne510733 0.0 1030306
30 october, sat
sat3000:00+8ne37780 0.0 1030128
03:00+6ne48790 0.0 1031151
06:00+5ne48810 0.0 1032162
09:00+7ene59760 0.0 1033353
12:00+12e67560 0.0 1033969
15:00+13e57444 0.0 10321214
18:00+9ene48540 0.0 1033185
21:00+8ene511600 0.0 1033294
31 october, sun
sun3100:00+6ene511700 0.0 1033279
03:00+5ene410760 0.0 1032230
05:00+5ene511800 0.0 1032242
08:00+7ene612700 0.0 1032375
11:00+12e710505 0.0 1030824
14:00+13e79431 0.0 1029994
17:00+11ene512510 0.0 1028344
20:00+9ene512610 0.0 1028337